Regional Weather Roundup
Issued by NWS

Home | Current Version | Previous Version | Text Only | Print | Product List | Glossary Off
Versions: 1 2 3 4 5 6 7 8 9 10 11 12 13 14 15 16 17 18 19 20 21 22 23 24 25 26 27 28 29 30 31 32 33 34 35 36 37 38 39 40 41 42 43 44 45 46 47 48 49 50

167
ASUS45 KABQ 241901
RWRNM
NEW MEXICO REGIONAL WEATHER ROUNDUP
NATIONAL WEATHER SERVICE ALBUQUERQUE NM
100 PM MDT WED AUG 24 2016

NOTE: "FAIR" MEANS FEW OR NO CLOUDS BELOW 12,000 FEET AGL WITH NO
       SIGNIFICANT WEATHER OR OBSTRUCTIONS TO VISION.

      THIS PRODUCT IS RELEASED AS TWO VERSIONS.  ONE VERSION NEAR
      THE TOP OF THE HOUR CONTAINING PRELIMINARY DATA FROM ALBUQUERQUE
      AND OTHER STATIONS.  A FINAL VERSION WITH ADDITIONAL DATA IS
      ISSUED ABOUT 10 MINUTES AFTER THE HOUR.

NMZ501-503-504-510>518-242000-
NORTHWEST PLATEAU/NORTHCENTRAL MOUNTAINS

CITY           SKY/WX    TMP DP  RH WIND       PRES   REMARKS
FARMINGTON     FAIR      69  50  50 S6        30.23F
LOS ALAMOS     PTSUNNY   66  48  52 S5        30.29F
SANTA FE       FAIR      71  48  43 SW8       30.24F
TAOS           FAIR      66  43  42 CALM      30.27F
ANGEL FIRE     FAIR      65  41  41 W9G17     30.32F

$$
NMZ402-403-502-505>509-242000-
WESTCENTRAL MOUNTAINS/SOUTHWEST MOUNTAINS

CITY           SKY/WX    TMP DP  RH WIND       PRES   REMARKS
GALLUP         FAIR      69  49  48 VRB3      30.30F
GRANTS         CLOUDY    66  47  50 N7G16     30.31F
SILVER CITY    FAIR      78  44  29 W7        30.21F

$$
NMZ407-409-411-412-242000-
SOUTHERN DESERTS

CITY           SKY/WX    TMP DP  RH WIND       PRES   REMARKS
DEMING         FAIR      85  49  28 W13       30.14F
LAS CRUCES     FAIR      84  44  24 NW7G17    30.16F
ALAMOGORDO     FAIR      82  50  32 S7        30.14F
T OR C         FAIR      81  46  29 SE9       30.16F

$$
NMZ519>523-242000-
CENTRAL VALLEYS/CENTRAL HIGHLANDS

CITY           SKY/WX    TMP DP  RH WIND       PRES   REMARKS
ALBUQUERQUE    FAIR      74  48  39 VRB3      30.21F
MORIARTY ARPT  CLOUDY    73  42  32 NW6       30.24F
CLINES CORNERS FAIR      70  45  40 W10G18    30.28F
BELEN          FAIR      75  44  33 W3        30.20F
SOCORRO        PTSUNNY   80  45  29 N7        30.19F

$$
NMZ524>526-539-540-242000-
SOUTHCENTRAL MOUNTAINS

CITY           SKY/WX    TMP DP  RH WIND       PRES   REMARKS
RUIDOSO        NOT AVBL

$$
NMZ527>531-242000-
NORTHEAST HIGHLANDS/NORTHEAST PLAINS

CITY           SKY/WX    TMP DP  RH WIND       PRES   REMARKS
LAS VEGAS      FAIR      73  43  33 S15G23    30.24F
RATON          FAIR      73  44  35 VRB5      30.20F
CLAYTON        FAIR      78  51  38 VRB3      30.16F

$$
NMZ532>537-242000-
EASTCENTRAL PLAINS

CITY           SKY/WX    TMP DP  RH WIND       PRES   REMARKS
TUCUMCARI      FAIR      81  58  45 S13       30.09F
CANNON AFB     FAIR      82  56  40 SW17G23   30.13F
CLOVIS AIRPORT FAIR      82  54  36 SW17      30.13F

$$
NMZ028-029-538-242000-
SOUTHEAST PLAINS

CITY           SKY/WX    TMP DP  RH WIND       PRES   REMARKS
ROSWELL        FAIR      78  63  59 S13       30.11F
ARTESIA        FAIR      75  70  83 SE24G30   30.12S
CARLSBAD       FAIR      70  65  84 S12       30.13F
HOBBS          LGT RAIN  66  66 100 S13       30.19S


$$




USA.gov is the U.S. government's official web portal to all federal, state and local government web resources and services.